Date String (YYYY-MM-DD hh:mm:ss) UTC,Instrument flags,Ambient pressure (hPa),Sample flow (lpm),Bypass flow (lpm),Sample temperature (°C),Ambient temperature (°C),ASC tube jacket temperature (°C),LED temperature (°C),Box temperature (°C),Sample RH (%),Span deviation,Mass concentration (μg/m³),Mass concentration (μg/m³),Mass concentration (μg/m³)
DateTimeUTC,F1_M11,P_M11,Q1_M11,Q2_M11,T1_M11,T2_M11,T3_M11,T4_M11,T5_M11,U1_M11,ZSPAN_M11,X2_M11,X0_M11,X1_M11
2021-12-18 03:00:00,,0827.3,5.01,0.00,22.0,21.3,00.0,31.0,23.6,07.0,0000.0,0001.29,0004.65,0000.82
2021-12-18 03:01:00,,0827.4,4.99,0.00,21.9,21.4,00.0,31.0,23.6,07.1,0000.0,0001.30,0003.84,0000.84
2021-12-18 03:02:00,,0827.4,5.00,0.00,22.1,22.2,00.0,31.0,23.8,07.2,0000.0,0001.32,0003.88,0000.86
2021-12-18 03:03:00,,0827.4,5.01,0.00,22.2,23.0,00.0,31.1,24.1,07.2,0000.0,0001.33,0003.76,0000.88
2021-12-18 03:04:00,,0827.4,4.99,0.00,22.3,23.0,00.0,31.1,24.2,07.2,0000.0,0001.32,0003.37,0000.89
2021-12-18 03:05:00,,0827.4,5.00,0.00,22.3,22.8,00.0,31.1,24.2,07.2,0000.0,0001.31,0003.32,0000.89
2021-12-18 03:06:00,,0827.4,5.02,0.00,22.3,22.5,00.0,31.1,24.2,07.1,0000.0,0001.30,0003.31,0000.88
2021-12-18 03:07:00,,0827.6,4.99,0.00,22.3,22.3,00.0,31.2,24.1,07.1,0000.0,0001.25,0003.15,0000.86
2021-12-18 03:08:00,,0827.6,4.99,0.00,22.3,22.2,00.0,31.2,24.0,07.1,0000.0,0001.24,0003.18,0000.85
2021-12-18 03:09:00,,0827.6,5.01,0.00,22.3,22.0,00.0,31.2,23.9,06.9,0000.0,0001.31,0003.30,0000.87
2021-12-18 03:10:00,,0827.6,4.99,0.00,22.2,21.9,00.0,31.2,23.9,06.9,0000.0,0001.27,0002.36,0000.86
2021-12-18 03:11:00,,0827.6,5.00,0.00,22.2,21.8,00.0,31.2,23.9,06.9,0000.0,0001.23,0002.63,0000.85
2021-12-18 03:12:00,,0827.4,5.00,0.00,22.2,21.7,00.0,31.2,23.8,07.0,0000.0,0001.22,0002.71,0000.82
2021-12-18 03:13:00,,0827.6,4.98,0.00,22.1,21.5,00.0,31.2,23.7,07.2,0000.0,0001.17,0002.60,0000.80
2021-12-18 03:14:00,,0827.7,5.01,0.00,22.1,21.3,00.0,31.1,23.6,07.2,0000.0,0001.13,0002.59,0000.77
2021-12-18 03:15:00,,0827.7,4.98,0.00,22.0,21.2,00.0,31.1,23.5,07.2,0000.0,0001.11,0002.47,0000.74
2021-12-18 03:16:00,,0827.7,5.01,0.00,21.9,21.1,00.0,31.1,23.4,07.2,0000.0,0001.10,0002.43,0000.73
2021-12-18 03:17:00,,0827.7,5.00,0.00,21.9,21.1,00.0,31.1,23.4,07.2,0000.0,0001.09,0002.40,0000.71
2021-12-18 03:18:00,,0827.8,5.00,0.00,21.9,21.3,00.0,31.0,23.5,07.2,0000.0,0001.08,0002.37,0000.71
2021-12-18 03:19:00,,0827.9,5.00,0.00,22.0,22.0,00.0,31.1,23.8,07.1,0000.0,0001.00,0002.12,0000.69
2021-12-18 03:20:00,,0827.9,5.01,0.00,22.2,22.9,00.0,31.1,24.1,07.1,0000.0,0000.94,0002.09,0000.66
2021-12-18 03:21:00,,0827.9,4.99,0.00,22.3,23.1,00.0,31.1,24.2,07.0,0000.0,0000.92,0002.09,0000.65
2021-12-18 03:22:00,,0827.7,5.00,0.00,22.3,22.8,00.0,31.2,24.2,06.9,0000.0,0000.88,0001.73,0000.63
2021-12-18 03:23:00,,0827.7,5.00,0.00,22.3,22.6,00.0,31.2,24.1,06.7,0000.0,0000.84,0001.48,0000.62
2021-12-18 03:24:00,,0827.6,5.01,0.00,22.3,22.4,00.0,31.2,24.1,06.6,0000.0,0000.83,0001.46,0000.60
2021-12-18 03:25:00,,0827.7,4.99,0.00,22.3,22.2,00.0,31.2,24.0,06.4,0000.0,0000.83,0001.42,0000.59
2021-12-18 03:26:00,,0827.6,5.00,0.00,22.3,22.0,00.0,31.2,23.9,06.8,0000.0,0000.83,0001.43,0000.58
2021-12-18 03:27:00,,0827.6,5.00,0.00,22.2,21.9,00.0,31.2,23.9,06.8,0000.0,0000.83,0001.42,0000.57
2021-12-18 03:28:00,,0827.5,5.00,0.00,22.2,21.8,00.0,31.2,23.8,06.8,0000.0,0000.82,0001.42,0000.56
2021-12-18 03:29:00,,0827.7,5.00,0.00,22.2,21.6,00.0,31.2,23.8,06.8,0000.0,0000.83,0001.52,0000.54
2021-12-18 03:30:00,,0827.7,4.99,0.00,22.2,21.6,00.0,31.2,23.7,06.9,0000.0,0000.84,0001.57,0000.54
2021-12-18 03:31:00,,0827.8,5.00,0.00,22.1,21.5,00.0,31.2,23.7,06.8,0000.0,0000.84,0001.54,0000.54
2021-12-18 03:32:00,,0827.8,4.99,0.00,22.1,21.4,00.0,31.2,23.6,06.8,0000.0,0000.83,0001.50,0000.53
2021-12-18 03:33:00,,0827.8,5.01,0.00,22.1,21.4,00.0,31.1,23.6,07.0,0000.0,0000.82,0001.46,0000.53
2021-12-18 03:34:00,,0827.9,4.99,0.00,22.0,21.3,00.0,31.1,23.6,07.0,0000.0,0000.86,0001.55,0000.54
2021-12-18 03:35:00,,0827.9,5.01,0.00,22.0,21.3,00.0,31.1,23.6,07.0,0000.0,0000.89,0001.61,0000.54
2021-12-18 03:36:00,,0828.0,5.00,0.00,22.0,21.4,00.0,31.1,23.7,07.0,0000.0,0000.86,0001.56,0000.55
2021-12-18 03:37:00,,0828.0,4.99,0.00,22.1,22.1,00.0,31.1,23.9,06.9,0000.0,0000.83,0001.51,0000.55
2021-12-18 03:38:00,,0828.0,5.01,0.00,22.2,22.9,00.0,31.2,24.2,06.8,0000.0,0000.80,0001.50,0000.55
2021-12-18 03:39:00,,0828.1,4.99,0.00,22.4,23.3,00.0,31.2,24.4,06.8,0000.0,0000.79,0002.18,0000.57
2021-12-18 03:40:00,,0828.1,5.01,0.00,22.4,23.0,00.0,31.2,24.4,06.8,0000.0,0000.79,0002.24,0000.58
2021-12-18 03:41:00,,0828.1,4.99,0.00,22.4,22.7,00.0,31.3,24.3,06.9,0000.0,0000.79,0002.41,0000.59
2021-12-18 03:42:00,,0828.1,5.00,0.00,22.4,22.5,00.0,31.3,24.2,06.9,0000.0,0000.80,0002.55,0000.59
2021-12-18 03:43:00,,0828.1,5.01,0.00,22.4,22.3,00.0,31.3,24.2,06.9,0000.0,0000.82,0002.58,0000.60
2021-12-18 03:44:00,,0828.1,5.01,0.00,22.4,22.2,00.0,31.3,24.2,07.1,0000.0,0000.88,0002.77,0000.61
2021-12-18 03:45:00,,0828.1,4.99,0.00,22.4,22.1,00.0,31.3,24.1,07.1,0000.0,0000.87,0003.24,0000.62
2021-12-18 03:46:00,,0828.1,5.00,0.00,22.4,22.0,00.0,31.3,24.0,07.4,0000.0,0000.87,0004.36,0000.63
2021-12-18 03:47:00,,0828.1,4.99,0.00,22.4,21.9,00.0,31.3,24.0,07.4,0000.0,0000.90,0004.48,0000.66
2021-12-18 03:48:00,,0828.2,5.00,0.00,22.4,21.8,00.0,31.3,24.0,07.4,0000.0,0000.95,0004.62,0000.68
2021-12-18 03:49:00,,0828.2,5.00,0.00,22.3,21.7,00.0,31.3,23.9,07.5,0000.0,0001.01,0004.67,0000.72
2021-12-18 03:50:00,,0828.3,4.99,0.00,22.3,21.6,00.0,31.3,23.8,07.5,0000.0,0001.11,0004.25,0000.74
2021-12-18 03:51:00,,0828.1,4.99,0.00,22.2,21.6,00.0,31.3,23.8,07.6,0000.0,0001.17,0004.17,0000.77
2021-12-18 03:52:00,,0828.1,5.01,0.00,22.2,21.5,00.0,31.3,23.7,07.5,0000.0,0001.25,0004.28,0000.79
2021-12-18 03:53:00,,0828.2,5.00,0.00,22.1,21.4,00.0,31.2,23.7,07.6,0000.0,0001.31,0004.24,0000.82
2021-12-18 03:54:00,,0828.3,4.99,0.00,22.1,21.3,00.0,31.2,23.6,07.7,0000.0,0001.34,0005.12,0000.84
2021-12-18 03:55:00,,0828.3,5.00,0.00,22.1,21.5,00.0,31.2,23.6,07.9,0000.0,0001.36,0005.55,0000.86
2021-12-18 03:56:00,,0828.3,5.00,0.00,22.2,22.2,00.0,31.2,23.9,08.1,0000.0,0001.39,0005.56,0000.88
2021-12-18 03:57:00,,0828.2,5.00,0.00,22.3,22.9,00.0,31.3,24.2,08.1,0000.0,0001.40,0004.14,0000.89
2021-12-18 03:58:00,,0828.2,5.01,0.00,22.4,23.3,00.0,31.3,24.4,08.1,0000.0,0001.46,0004.15,0000.90
2021-12-18 03:59:00,,0828.2,5.00,0.00,22.5,23.0,00.0,31.3,24.3,08.2,0000.0,0001.51,0004.23,0000.91
